RH
35 36 35 26 20 19 14 9 12 14 11 11 15 17 16 15 15 21 26 31 41 52 54 51 52 60 67 65 64 61 64 61 59 64 68 65 62 50 40 29 44 53 55
28 32 35 35 20 18 14 9 10 12 10 9 8 9 8 8 11 16 22 27 33 47 54 54 53 63 69 65 63 58 57 51 51 61 66 72 67 48 40 41 41 48 52
32 33 38 23 16 16 16 10 9 10 10 8 8 8 7 7 8 11 18 26 30 41 55 60 58 63 72 69 63 59 54 45 41 58 52 63 60 49 42 47 43 48 53
26 23 21 18 12 14 16 11 9 8 10 10 8 12 13 11 10 14 21 29 35 45 58 67 70 71 73 74 66 59 54 45 44 49 44 49 50 45 45 51 49 53 56
27 25 25 17 12 13 16 12 9 8 9 9 8 9 9 10 12 12 19 34 44 52 57 66 71 76 81 80 68 58 54 50 52 52 50 46 44 46 49 60 52 60 63
28 26 20 14 14 13 17 13 9 9 9 8 8 8 8 8 12 12 23 40 53 55 57 68 76 79 79 87 75 58 59 58 55 60 64 50 62 59 58 62 62 67 66
23 26 21 15 13 13 17 16 10 10 10 10 9 9 9 8 10 27 28 41 56 62 63 75 80 81 80 86 86 74 64 67 58 73 76 78 84 79 71 72 72 73 77
22 20 16 14 14 13 14 16 11 10 11 11 10 9 9 8 14 36 37 32 49 71 74 74 74 77 78 82 93 91 72 66 62 71 79 82 85 74 90 79 82 81 84
17 16 18 19 18 16 16 17 12 11 13 12 13 10 9 8 16 36 40 40 44 66 88 86 77 80 83 88 89 89 78 66 67 69 71 70 77 79 97 88 87 91 91
21 18 18 18 24 24 22 21 14 12 14 13 15 11 9 8 9 21 36 52 57 55 73 88 84 82 78 76 80 98 74 75 78 76 63 69 84 92 97 95 93 99 98
20 22 21 17 29 31 27 24 21 13 16 14 14 11 9 8 8 10 18 48 64 68 59 60 68 72 65 65 70 83 85 85 84 81 72 81 86 98 97 99 100 100 100
22 20 18 16 33 36 32 30 25 16 18 15 14 11 9 8 8 8 10 26 45 62 77 71 61 77 70 71 75 82 78 87 86 79 81 99 98 98 100 97 99 100 100
32 23 17 12 13 19 27 31 30 17 20 17 14 14 11 9 9 8 8 8 14 32 71 78 76 89 85 84 85 99 88 86 92 96 92 99 84 90 91 96 94 92 85
28 32 28 19 14 14 15 14 19 16 23 21 18 16 14 10 9 9 9 9 13 18 58 79 80 90 91 86 95 98 91 92 99 97 93 95 98 99 99 98 92 91 85
34 25 22 24 30 14 13 14 18 21 27 23 20 20 16 12 10 9 9 10 29 44 67 70 85 90 96 96 96 99 99 88 97 98 100 96 98 98 98 100 93 88 85
29 33 25 23 38 64 49 36 18 33 30 26 22 25 18 13 10 9 10 18 55 58 87 92 94 90 97 100 99 100 99 98 99 98 100 99 99 100 98 99 99 98 97
31 32 33 28 26 41 70 84 32 32 34 31 28 28 20 14 11 9 12 40 58 82 87 89 99 98 100 100 100 99 100 100 100 100 100 96 100 98 96 98 99 99 98
34 34 34 33 27 75 51 71 65 38 41 40 37 29 20 15 12 10 13 55 63 80 84 86 99 98 100 100 100 98 99 100 100 100 100 100 98 98 100 96 98 96 97
39 40 38 36 32 36 68 90 97 51 48 49 43 31 26 22 14 12 24 62 70 77 97 100 100 98 98 98 96 98 100 100 98 99 100 100 99 99 100 98 95 98 99
55 55 55 54 43 91 66 98 96 85 55 54 42 30 29 23 17 17 53 71 84 92 95 98 100 98 99 100 99 99 100 100 100 100 99 100 100 100 100 100 100 100 99
99 100 98 64 50 66 87 99 73 74 95 53 45 34 31 26 19 26 75 81 97 99 100 95 95 97 99 100 100 100 100 100 100 100 100 100 100 100 100 100 98 88 74
98 100 98 96 60 96 99 78 85 90 85 74 62 48 35 31 23 44 94 89 92 98 100 100 90 98 100 99 97 97 99 99 100 98 98 100 99 100 98 86 78 32 20
100 99 98 99 76 70 90 75 96 100 93 83 74 67 44 37 28 67 85 100 97 93 88 99 95 99 99 98 100 94 99 98 99 99 98 97 99 100 99 79 60 65 74
98 100 100 100 100 63 90 100 95 81 93 96 88 67 52 45 37 51 99 99 77 100 94 86 98 100 98 97 100 100 100 100 98 100 100 100 100 100 98 98 87 52 24
96 97 99 100 100 79 60 82 100 87 99 74 75 62 70 58 48 45 81 100 100 99 100 84 99 81 100 100 100 100 98 100 99 100 100 100 99 100 100 86 51 43 25
94 95 96 97 100 86 76 77 96 100 99 100 95 100 77 76 62 46 68 69 72 84 89 100 98 100 100 100 92 99 100 99 100 100 100 99 100 99 98 71 56 34 22
Wind_Speed
14 11 8 10 8 9 9 10 12 11 10 11 12 13 14 15 17 16 16 15 14 13 12 11 11 11 10 11 11 10 10 10 10 11 13 14 15 15 14 15 14 15 16
14 12 11 11 8 9 10 10 12 11 8 9 10 11 12 14 15 16 16 16 15 14 13 13 13 11 12 12 12 11 11 11 12 12 13 14 15 16 15 16 16 16 18
7 10 12 9 10 10 10 10 12 11 10 9 9 10 11 13 13 14 16 17 16 15 15 14 15 13 14 13 13 12 12 12 13 13 13 14 15 17 18 17 18 18 19
8 8 8 12 14 12 11 11 12 12 11 10 10 10 11 12 12 13 15 16 17 17 17 16 14 13 15 15 14 14 14 13 13 14 15 15 17 19 19 18 19 19 19
16 14 16 15 16 13 12 12 13 14 12 11 11 12 12 13 12 12 15 16 17 17 17 17 16 14 15 16 16 15 15 14 14 14 16 17 19 20 19 20 21 21 21
20 18 16 20 19 15 13 13 14 14 14 14 13 13 13 14 14 15 16 17 17 17 17 18 16 16 17 17 18 17 15 15 15 15 16 18 19 20 21 22 23 22 23
22 23 22 24 21 17 15 15 14 15 16 15 14 14 14 14 15 15 16 16 17 17 18 18 17 17 18 18 18 18 17 17 16 15 18 20 21 22 24 25 25 25 25
24 26 25 20 20 19 18 17 15 15 16 16 15 15 15 13 15 16 15 16 18 19 19 19 19 19 18 20 18 21 22 18 17 18 20 21 22 24 24 26 27 26 26
24 24 25 27 27 25 21 18 15 15 16 16 16 17 15 14 16 16 15 15 18 19 19 19 20 19 17 17 21 20 18 17 18 18 21 21 24 27 28 29 29 28 28
27 27 25 26 25 24 22 20 18 18 18 17 17 19 17 16 17 17 17 17 19 20 20 21 21 19 19 21 21 22 21 23 23 21 22 23 26 29 32 33 33 31 31
26 26 27 25 25 26 25 23 20 20 20 19 18 19 17 15 16 17 18 19 20 21 22 24 25 23 22 22 21 18 20 25 24 20 24 26 30 38 41 36 32 29 29
27 27 25 24 24 27 28 27 24 22 22 20 19 18 16 16 18 19 19 21 22 22 22 25 27 24 22 21 20 25 25 28 24 23 26 28 21 48 36 32 32 26 24
27 30 29 27 27 29 31 32 31 26 25 23 20 18 18 18 20 20 20 20 21 24 25 27 29 27 24 24 19 25 27 30 29 24 25 28 19 25 34 25 27 19 19
30 30 29 30 30 30 28 30 30 28 26 23 20 19 20 19 20 21 20 20 20 24 25 26 25 27 26 22 22 21 33 30 28 26 28 28 18 27 29 25 22 22 23
33 34 35 34 30 32 29 26 28 28 26 25 22 20 20 20 20 21 20 20 21 23 23 24 26 26 25 26 20 21 33 37 31 25 42 27 25 22 19 23 24 23 20
43 39 40 40 36 30 29 28 27 29 27 26 23 21 21 21 21 21 21 19 22 23 19 24 27 28 28 25 25 24 29 35 34 35 29 21 26 19 17 16 19 22 22
48 47 44 43 42 38 31 32 29 30 28 26 23 22 21 22 20 20 20 18 22 27 19 23 25 28 37 32 29 29 29 32 34 31 32 29 32 19 16 17 19 18 19
52 51 48 45 44 41 36 37 32 31 29 26 25 23 21 21 20 19 18 18 23 26 27 22 29 27 31 37 39 35 31 34 30 31 32 39 26 20 22 19 20 22 17
53 51 51 49 44 42 36 30 35 34 31 28 28 25 22 21 20 18 18 19 21 26 26 27 30 33 29 30 37 43 38 38 34 34 40 33 29 31 26 24 25 25 20
54 53 50 46 45 37 42 43 37 36 35 31 30 27 24 22 20 19 20 21 21 28 25 29 28 32 30 35 34 33 35 42 34 35 33 33 28 32 28 27 31 27 24
45 45 46 45 44 40 39 34 40 44 35 34 32 30 26 23 20 20 21 21 22 21 32 22 32 26 28 31 35 42 42 39 37 36 36 38 33 30 30 26 25 21 18
45 45 48 46 41 37 46 49 48 42 42 35 33 32 29 24 20 20 25 24 25 35 36 30 24 31 31 32 35 35 41 42 41 40 37 37 29 23 25 24 20 19 19
42 45 47 47 45 42 56 48 43 37 33 41 37 34 30 25 22 24 29 27 29 32 26 29 26 37 38 38 46 36 49 47 42 40 42 39 37 30 28 30 31 27 17
34 43 45 49 47 45 55 40 39 50 46 49 37 35 30 28 26 27 32 34 33 32 31 31 31 23 27 32 45 42 42 44 46 43 41 39 41 42 42 26 22 20 22
20 34 40 48 52 50 54 56 44 49 45 42 43 39 34 32 30 28 32 36 39 40 40 38 36 32 29 31 34 39 40 34 30 31 37 39 41 43 41 22 22 22 22
26 24 26 34 46 50 59 57 51 41 39 39 46 39 39 34 33 32 32 35 37 40 38 36 37 31 39 36 37 42 42 38 33 33 37 34 35 36 36 29 25 24 23
Wind_Direction
267 273 270 263 286 307 295 260 249 249 246 233 228 229 233 234 234 232 231 229 225 223 220 217 218 213 197 196 197 203 203 201 204 203 197 197 186 181 176 170 167 163 160
250 264 255 271 264 299 300 273 255 256 250 244 239 237 236 233 228 226 228 228 228 224 222 221 223 212 200 202 203 201 198 197 202 202 203 197 189 186 182 179 175 170 165
227 246 248 254 283 291 295 285 264 258 255 256 251 243 239 235 228 222 223 224 225 224 221 219 223 214 205 204 203 203 201 202 203 201 200 197 192 187 184 181 178 173 169
246 242 248 275 292 290 284 286 273 261 254 259 255 248 247 243 233 226 224 221 223 222 221 220 221 214 212 207 205 204 201 202 204 202 198 195 192 188 187 182 179 173 171
263 259 269 275 304 281 274 282 278 266 258 256 253 249 251 251 244 237 230 226 226 224 224 223 222 214 212 211 207 204 202 202 203 202 200 190 190 188 185 181 176 174 172
259 269 266 273 291 282 272 280 283 268 259 256 253 250 252 253 243 236 231 229 229 228 226 225 218 213 212 213 208 204 202 209 208 201 198 189 189 191 184 179 176 176 172
253 257 269 276 278 271 269 274 282 274 261 261 257 253 253 249 243 232 226 227 230 231 226 224 220 219 219 217 215 215 208 210 211 202 200 194 189 186 184 179 178 178 174
259 261 267 268 263 265 267 269 273 272 264 264 260 257 255 250 240 232 225 228 230 233 230 226 225 222 222 226 223 230 218 207 208 202 203 196 188 185 189 182 180 180 177
258 264 267 267 264 261 258 260 266 268 265 261 258 258 255 249 240 234 231 227 231 233 233 231 231 226 219 223 222 218 217 221 211 208 203 200 193 189 188 184 183 183 180
263 269 272 275 257 250 253 256 265 261 260 257 257 252 251 247 245 236 233 231 229 233 235 235 230 227 226 227 231 206 236 218 209 201 206 205 201 195 192 187 188 184 182
265 265 268 265 248 250 248 255 259 256 256 252 251 250 251 249 248 243 234 233 233 234 236 241 237 231 230 227 230 221 210 215 206 200 209 210 212 204 205 183 186 185 180
264 264 265 256 247 246 248 255 256 256 253 251 249 250 250 247 245 242 237 231 234 234 235 237 237 234 231 227 241 224 210 217 210 206 212 208 217 181 187 180 182 176 176
246 261 267 254 251 249 251 253 254 252 246 247 245 244 244 241 244 244 243 241 238 235 233 235 235 231 227 232 226 206 207 212 203 201 208 155 167 181 183 176 186 168 152
244 238 235 248 256 256 254 249 246 238 240 246 243 242 243 241 243 246 243 244 242 238 232 239 234 231 229 236 207 223 200 213 205 202 210 204 168 157 159 159 155 160 166
238 233 234 237 248 256 255 239 238 229 236 243 243 244 244 243 241 246 246 244 242 236 231 234 227 227 226 214 220 212 200 210 204 176 179 188 178 168 161 160 161 162 168
238 234 233 234 240 242 249 239 232 225 234 241 240 243 242 241 239 244 246 242 237 221 232 233 236 227 225 226 228 202 202 210 201 191 170 186 199 184 176 188 176 178 176
237 238 237 238 239 236 231 237 232 225 230 238 243 245 243 239 236 237 241 236 224 218 240 229 217 224 220 217 206 206 198 202 209 198 206 222 198 191 191 195 196 187 179
237 240 241 240 240 229 228 231 234 229 230 236 239 240 239 239 237 234 235 220 216 222 234 240 207 222 200 206 209 200 201 196 203 191 183 199 196 203 191 204 198 200 188
235 238 241 242 242 237 228 217 234 231 229 231 234 237 234 236 235 230 229 211 212 209 194 208 206 210 190 187 193 201 207 204 215 224 219 221 214 213 215 200 207 203 205
232 233 234 233 236 233 221 233 223 228 228 226 231 232 231 230 229 222 215 208 204 202 204 193 198 198 199 206 201 205 213 216 205 196 209 202 207 204 213 219 217 218 216
223 223 230 229 235 232 230 224 228 226 230 223 227 232 230 226 221 217 199 198 189 196 192 209 208 213 194 207 209 200 195 203 211 214 204 216 207 214 200 195 199 201 207
224 222 224 225 231 217 228 221 222 223 225 223 224 229 231 226 213 208 194 194 200 199 203 206 222 204 215 207 200 207 205 205 200 204 223 204 210 210 218 209 199 206 214
212 215 219 220 225 227 231 225 220 224 226 229 220 224 224 224 218 204 195 201 200 212 221 209 221 223 228 224 214 211 202 195 198 207 213 218 218 216 214 211 205 200 212
217 212 211 209 214 228 227 223 212 229 223 219 224 224 224 220 220 211 203 205 210 220 215 224 225 217 211 213 210 201 219 223 224 221 219 214 217 225 224 207 194 200 217
243 221 212 209 215 219 227 245 228 225 230 230 220 222 222 220 220 215 208 212 211 219 219 225 227 228 231 213 224 222 221 232 237 239 236 235 234 235 231 202 205 208 217
285 270 239 221 208 217 233 239 220 219 213 216 226 215 221 222 220 217 214 215 220 217 225 227 225 217 226 231 238 237 234 246 257 246 241 235 238 238 205 196 204 211 212